Location: Buchloe
(48.0161°N, 10.7316°E)
Time: 04:40:04
(UTC+02:00)

ISS - Pass Details

Date: 25 May 2018
Orbit: 402 x 407 km, 51.6° (Epoch: 26 May)

Event Time Altitude Azimuth Distance (km) Brightness Sun altitude
Rises 00:27:45 0° 284° (WNW) 2,319 0.4 -20.3°
Reaches altitude 10° 00:29:54 10° 292° (WNW) 1,458 -0.6 -20.4°
Maximum altitude 00:33:02 43° 5° (N) 577 -2.6 -20.5°
Enters shadow 00:35:42 13° 77° (ENE) 1,275 -1.3 -20.6°
